| time (UTC) | temp F | wind direction | speed MPH | gust MPH | rain 1hr in | rain 24hr in | rain mn in | humidity % | barometer mb |
| 20260901170747 | 61 | 157 | 0.0 | 3.0 | 0.00 | 0.00 | 0.00 | 63 | 1014.7 |
| 20260901170509 | 61 | 109 | 0.0 | 3.0 | 0.00 | 0.00 | 0.00 | 66 | 1014.8 |
| 20260901165742 | 60 | 109 | 1.0 | 3.0 | 0.00 | 0.00 | 0.00 | 64 | 1014.8 |
| 20260901165237 | 60 | 108 | 0.0 | 2.0 | 0.00 | 0.00 | 0.00 | 68 | 1014.9 |
| 20260901164739 | 59 | 106 | 0.0 | 1.0 | 0.00 | 0.00 | 0.00 | 68 | 1014.8 |
| 20260901164239 | 59 | 106 | 0.0 | 2.0 | 0.00 | 0.00 | 0.00 | 74 | 1014.8 |
| 20260901163738 | 58 | 106 | 0.0 | 2.0 | 0.00 | 0.00 | 0.00 | 72 | 1014.8 |
| 20260901163239 | 58 | 89 | 0.0 | 2.0 | 0.00 | 0.00 | 0.00 | 74 | 1014.9 |
| 20260901162736 | 58 | 88 | 0.0 | 2.0 | 0.00 | 0.00 | 0.00 | 78 | 1014.9 |
| 20260901162229 | 57 | 82 | 0.0 | 3.0 | 0.00 | 0.00 | 0.00 | 78 | 1014.9 |
| 20260901161952 | 56 | 78 | 0.0 | 3.0 | 0.00 | 0.00 | 0.00 | 78 | 1015.0 |
| 20260901161224 | 55 | 76 | 0.0 | 3.0 | 0.00 | 0.00 | 0.00 | 81 | 1015.1 |
| 20260901160724 | 55 | 76 | 0.0 | 3.0 | 0.00 | 0.00 | 0.00 | 81 | 1015.3 |
| 20260901160227 | 54 | 60 | 0.0 | 0.0 | 0.00 | 0.00 | 0.00 | 84 | 1015.3 |
| 20260901155949 | 53 | 60 | 0.0 | 2.0 | 0.00 | 0.00 | 0.00 | 87 | 1015.4 |
| 20260901155212 | 52 | 60 | 0.0 | 2.0 | 0.00 | 0.00 | 0.00 | 87 | 1015.4 |
| 20260901154700 | 52 | 59 | 0.0 | 0.0 | 0.00 | 0.00 | 0.00 | 89 | 1015.5 |
| 20260901154159 | 51 | 59 | 0.0 | 0.0 | 0.00 | 0.00 | 0.00 | 91 | 1015.5 |
| 20260901154136 | 51 | 59 | 0.0 | 1.0 | 0.00 | 0.00 | 0.00 | 93 | 1015.5 |
| 20260901153200 | 50 | 59 | 0.0 | 1.0 | 0.00 | 0.00 | 0.00 | 95 | 1015.6 |
| 20260901152700 | 49 | 59 | 0.0 | 2.0 | 0.00 | 0.00 | 0.00 | 97 | 1015.6 |
| 20260901152155 | 49 | 59 | 0.0 | 2.0 | 0.00 | 0.00 | 0.00 | 97 | 1015.6 |
| 20260901151915 | 49 | 26 | 0.0 | 2.0 | 0.00 | 0.00 | 0.00 | 97 | 1015.6 |
| 20260901151146 | 48 | 26 | 0.0 | 1.0 | 0.00 | 0.00 | 0.00 | 97 | 1015.6 |
| 20260901150641 | 48 | 26 | 0.0 | 0.0 | 0.00 | 0.00 | 0.00 | 97 | 1015.6 |
| 20260901150141 | 47 | 26 | 0.0 | 1.0 | 0.00 | 0.00 | 0.00 | 97 | 1015.6 |
| 20260901145641 | 47 | 26 | 0.0 | 1.0 | 0.00 | 0.00 | 0.00 | 97 | 1015.7 |
| 20260901145141 | 46 | 25 | 0.0 | 0.0 | 0.00 | 0.00 | 0.00 | 97 | 1015.7 |
| 20260901144639 | 46 | 25 | 0.0 | 0.0 | 0.00 | 0.00 | 0.00 | 97 | 1015.7 |
| 20260901144131 | 46 | 25 | 0.0 | 0.0 | 0.00 | 0.00 | 0.00 | 97 | 1015.7 |
| 20260901143632 | 46 | 25 | 0.0 | 0.0 | 0.00 | 0.00 | 0.00 | 97 | 1015.7 |
| 20260901143134 | 45 | 25 | 0.0 | 0.0 | 0.00 | 0.00 | 0.00 | 97 | 1015.7 |
| 20260901142622 | 45 | 25 | 0.0 | 0.0 | 0.00 | 0.00 | 0.00 | 97 | 1015.6 |
| 20260901142340 | 45 | 25 | 0.0 | 0.0 | 0.00 | 0.00 | 0.00 | 97 | 1015.7 |
| 20260901141612 | 45 | 25 | 0.0 | 0.0 | 0.00 | 0.00 | 0.00 | 96 | 1015.5 |
| 20260901141113 | 44 | 25 | 0.0 | 0.0 | 0.00 | 0.00 | 0.00 | 96 | 1015.6 |
| 20260901140608 | 44 | 25 | 0.0 | 0.0 | 0.00 | 0.00 | 0.00 | 96 | 1015.6 |
| 20260901140325 | 44 | 25 | 0.0 | 0.0 | 0.00 | 0.00 | 0.00 | 96 | 1015.6 |
| 20260901135828 | 44 | 25 | 0.0 | 0.0 | 0.00 | 0.00 | 0.00 | 96 | 1015.6 |
| 20260901135058 | 44 | 25 | 0.0 | 0.0 | 0.00 | 0.00 | 0.00 | 96 | 1015.6 |
| 20260901134554 | 44 | 25 | 0.0 | 0.0 | 0.00 | 0.00 | 0.00 | 96 | 1015.6 |
| 20260901134053 | 44 | 25 | 0.0 | 0.0 | 0.00 | 0.00 | 0.00 | 96 | 1015.6 |
| 20260901133554 | 44 | 25 | 0.0 | 0.0 | 0.00 | 0.00 | 0.00 | 96 | 1015.6 |
| 20260901133049 | 44 | 25 | 0.0 | 0.0 | 0.00 | 0.00 | 0.00 | 96 | 1015.4 |
| 20260901132548 | 44 | 25 | 0.0 | 0.0 | 0.00 | 0.00 | 0.00 | 96 | 1015.5 |
| 20260901132048 | 44 | 25 | 0.0 | 0.0 | 0.00 | 0.00 | 0.00 | 96 | 1015.4 |
| 20260901131549 | 44 | 25 | 0.0 | 0.0 | 0.00 | 0.00 | 0.00 | 96 | 1015.3 |
| 20260901131045 | 44 | 25 | 0.0 | 0.0 | 0.00 | 0.00 | 0.00 | 96 | 1015.4 |
| 20260901130539 | 44 | 25 | 0.0 | 0.0 | 0.00 | 0.00 | 0.00 | 96 | 1015.4 |
| 20260901130258 | 44 | 25 | 0.0 | 0.0 | 0.00 | 0.00 | 0.00 | 96 | 1015.3 |
| 20260901125800 | 44 | 25 | 0.0 | 0.0 | 0.00 | 0.00 | 0.00 | 96 | 1015.3 |
| 20260901125035 | 44 | 25 | 0.0 | 0.0 | 0.00 | 0.00 | 0.00 | 96 | 1015.3 |
| 20260901124530 | 44 | 25 | 0.0 | 0.0 | 0.00 | 0.00 | 0.00 | 96 | 1015.3 |
| 20260901124249 | 44 | 25 | 0.0 | 0.0 | 0.00 | 0.00 | 0.00 | 96 | 1015.3 |
| 20260901123520 | 44 | 25 | 0.0 | 0.0 | 0.00 | 0.00 | 0.00 | 96 | 1015.3 |
| 20260901123010 | 44 | 25 | 0.0 | 0.0 | 0.00 | 0.00 | 0.00 | 96 | 1015.3 |
| 20260901122505 | 44 | 25 | 0.0 | 0.0 | 0.00 | 0.00 | 0.00 | 95 | 1015.3 |
| 20260901122001 | 44 | 25 | 0.0 | 0.0 | 0.00 | 0.00 | 0.00 | 95 | 1015.3 |
| 20260901121716 | 44 | 25 | 0.0 | 0.0 | 0.00 | 0.00 | 0.00 | 95 | 1015.3 |
| 20260901120956 | 44 | 25 | 0.0 | 0.0 | 0.00 | 0.00 | 0.00 | 95 | 1015.4 |
| 20260901120451 | 44 | 25 | 0.0 | 0.0 | 0.00 | 0.00 | 0.00 | 96 | 1015.3 |
| 20260901115946 | 44 | 25 | 0.0 | 0.0 | 0.00 | 0.00 | 0.00 | 96 | 1015.4 |
| 20260901115702 | 44 | 25 | 0.0 | 0.0 | 0.00 | 0.00 | 0.00 | 96 | 1015.3 |
| 20260901114946 | 44 | 25 | 0.0 | 0.0 | 0.00 | 0.00 | 0.00 | 95 | 1015.3 |
| 20260901114446 | 44 | 25 | 0.0 | 0.0 | 0.00 | 0.00 | 0.00 | 95 | 1015.3 |
| 20260901113941 | 44 | 25 | 0.0 | 0.0 | 0.00 | 0.00 | 0.00 | 95 | 1015.3 |
| 20260901113442 | 44 | 25 | 0.0 | 0.0 | 0.00 | 0.00 | 0.00 | 95 | 1015.1 |
| 20260901112937 | 44 | 25 | 0.0 | 0.0 | 0.00 | 0.00 | 0.00 | 95 | 1015.1 |
| 20260901112434 | 44 | 25 | 0.0 | 0.0 | 0.00 | 0.00 | 0.00 | 95 | 1015.3 |
| 20260901111932 | 44 | 25 | 0.0 | 0.0 | 0.00 | 0.00 | 0.00 | 95 | 1015.3 |
| 20260901111432 | 44 | 25 | 0.0 | 0.0 | 0.00 | 0.00 | 0.00 | 95 | 1015.4 |
| 20260901110932 | 44 | 25 | 0.0 | 0.0 | 0.00 | 0.00 | 0.00 | 95 | 1015.4 |
| 20260901110428 | 44 | 25 | 0.0 | 0.0 | 0.00 | 0.00 | 0.00 | 95 | 1015.4 |
| 20260901105925 | 44 | 25 | 0.0 | 0.0 | 0.00 | 0.00 | 0.00 | 95 | 1015.4 |
| 20260901105410 | 45 | 25 | 0.0 | 0.0 | 0.00 | 0.00 | 0.00 | 95 | 1015.4 |
| 20260901104902 | 45 | 25 | 0.0 | 0.0 | 0.00 | 0.00 | 0.00 | 95 | 1015.5 |
| 20260901104357 | 45 | 25 | 0.0 | 0.0 | 0.00 | 0.00 | 0.00 | 95 | 1015.4 |
| 20260901104124 | 45 | 25 | 0.0 | 0.0 | 0.00 | 0.00 | 0.00 | 95 | 1015.4 |
| 20260901103358 | 45 | 25 | 0.0 | 0.0 | 0.00 | 0.00 | 0.00 | 95 | 1015.3 |
| 20260901102858 | 45 | 25 | 0.0 | 0.0 | 0.00 | 0.00 | 0.00 | 95 | 1015.3 |
| 20260901102354 | 45 | 25 | 0.0 | 0.0 | 0.00 | 0.00 | 0.00 | 95 | 1015.3 |
| 20260901101853 | 45 | 25 | 0.0 | 0.0 | 0.00 | 0.00 | 0.00 | 95 | 1015.3 |
| 20260901101609 | 45 | 25 | 0.0 | 0.0 | 0.00 | 0.00 | 0.00 | 95 | 1015.1 |
| 20260901100852 | 45 | 25 | 0.0 | 0.0 | 0.00 | 0.00 | 0.00 | 95 | 1015.3 |
| 20260901100828 | 45 | 25 | 0.0 | 0.0 | 0.00 | 0.00 | 0.00 | 95 | 1015.4 |
| 20260901095834 | 45 | 25 | 0.0 | 0.0 | 0.00 | 0.00 | 0.00 | 95 | 1015.4 |
| 20260901095334 | 45 | 25 | 0.0 | 0.0 | 0.00 | 0.00 | 0.00 | 94 | 1015.4 |
| 20260901094824 | 45 | 25 | 0.0 | 0.0 | 0.00 | 0.00 | 0.00 | 94 | 1015.4 |
| 20260901094324 | 45 | 25 | 0.0 | 0.0 | 0.00 | 0.00 | 0.00 | 94 | 1015.4 |
| 20260901093824 | 45 | 25 | 0.0 | 0.0 | 0.00 | 0.00 | 0.00 | 94 | 1015.4 |
| 20260901093315 | 45 | 25 | 0.0 | 0.0 | 0.00 | 0.00 | 0.00 | 94 | 1015.4 |
| 20260901093040 | 46 | 25 | 0.0 | 0.0 | 0.00 | 0.00 | 0.00 | 94 | 1015.3 |
| 20260901092259 | 46 | 25 | 0.0 | 0.0 | 0.00 | 0.00 | 0.00 | 94 | 1015.4 |
| 20260901091800 | 46 | 25 | 0.0 | 0.0 | 0.00 | 0.00 | 0.00 | 94 | 1015.3 |
| 20260901091749 | 46 | 25 | 0.0 | 0.0 | 0.00 | 0.00 | 0.00 | 94 | 1015.3 |
| 20260901090803 | 46 | 25 | 0.0 | 0.0 | 0.00 | 0.00 | 0.00 | 94 | 1015.1 |
| 20260901090740 | 46 | 25 | 0.0 | 0.0 | 0.00 | 0.00 | 0.00 | 94 | 1015.3 |
| 20260901085740 | 46 | 25 | 0.0 | 0.0 | 0.00 | 0.00 | 0.00 | 94 | 1015.3 |
| 20260901085241 | 46 | 25 | 0.0 | 0.0 | 0.00 | 0.00 | 0.00 | 94 | 1015.1 |
| 20260901084735 | 46 | 25 | 0.0 | 0.0 | 0.00 | 0.00 | 0.00 | 94 | 1015.1 |
| 20260901084236 | 46 | 25 | 0.0 | 0.0 | 0.00 | 0.00 | 0.00 | 94 | 1015.3 |
| 20260901083736 | 46 | 25 | 0.0 | 0.0 | 0.00 | 0.00 | 0.00 | 94 | 1015.3 |
| 20260901083236 | 46 | 25 | 0.0 | 0.0 | 0.00 | 0.00 | 0.00 | 94 | 1015.1 |
| 20260901082731 | 47 | 25 | 0.0 | 0.0 | 0.00 | 0.00 | 0.00 | 94 | 1015.3 |
| 20260901082231 | 47 | 25 | 0.0 | 0.0 | 0.00 | 0.00 | 0.00 | 93 | 1015.3 |
| 20260901081933 | 47 | 25 | 0.0 | 0.0 | 0.00 | 0.00 | 0.00 | 93 | 1015.3 |
| 20260901081156 | 47 | 25 | 0.0 | 0.0 | 0.00 | 0.00 | 0.00 | 93 | 1015.3 |
| 20260901080659 | 47 | 25 | 0.0 | 0.0 | 0.00 | 0.00 | 0.00 | 93 | 1015.1 |
| 20260901080152 | 47 | 25 | 0.0 | 0.0 | 0.00 | 0.00 | 0.00 | 93 | 1015.3 |
| 20260901075652 | 47 | 25 | 0.0 | 0.0 | 0.00 | 0.00 | 0.00 | 93 | 1015.3 |
| 20260901075152 | 47 | 25 | 0.0 | 0.0 | 0.00 | 0.00 | 0.00 | 93 | 1015.3 |
| 20260901074652 | 47 | 25 | 0.0 | 0.0 | 0.00 | 0.00 | 0.00 | 93 | 1015.1 |
| 20260901074153 | 47 | 25 | 0.0 | 0.0 | 0.00 | 0.00 | 0.00 | 93 | 1015.4 |
| 20260901073859 | 47 | 25 | 0.0 | 0.0 | 0.00 | 0.00 | 0.00 | 92 | 1015.4 |
| 20260901073137 | 47 | 25 | 0.0 | 0.0 | 0.00 | 0.00 | 0.00 | 92 | 1015.5 |
| 20260901072627 | 47 | 25 | 0.0 | 0.0 | 0.00 | 0.00 | 0.00 | 92 | 1015.5 |
| 20260901072122 | 47 | 25 | 0.0 | 0.0 | 0.00 | 0.00 | 0.00 | 92 | 1015.5 |
| 20260901071843 | 48 | 25 | 0.0 | 0.0 | 0.00 | 0.00 | 0.00 | 92 | 1015.5 |
| 20260901071122 | 48 | 25 | 0.0 | 0.0 | 0.00 | 0.00 | 0.00 | 92 | 1015.6 |
| 20260901070626 | 48 | 25 | 0.0 | 0.0 | 0.00 | 0.00 | 0.00 | 92 | 1015.7 |
| 20260901070113 | 48 | 25 | 0.0 | 0.0 | 0.00 | 0.00 | 0.00 | 92 | 1015.7 |
| 20260901065604 | 48 | 25 | 0.0 | 0.0 | 0.00 | 0.00 | 0.00 | 92 | 1015.6 |
| 20260901065104 | 48 | 25 | 0.0 | 0.0 | 0.00 | 0.00 | 0.00 | 92 | 1015.5 |
| 20260901064558 | 48 | 25 | 0.0 | 0.0 | 0.00 | 0.00 | 0.00 | 92 | 1015.5 |
| 20260901064059 | 48 | 25 | 0.0 | 0.0 | 0.00 | 0.00 | 0.00 | 92 | 1015.6 |
| 20260901063558 | 48 | 25 | 0.0 | 0.0 | 0.00 | 0.00 | 0.00 | 92 | 1015.6 |
| 20260901063059 | 48 | 25 | 0.0 | 0.0 | 0.00 | 0.00 | 0.00 | 91 | 1015.7 |
| 20260901062545 | 48 | 25 | 0.0 | 0.0 | 0.00 | 0.00 | 0.00 | 91 | 1015.7 |
| 20260901062309 | 48 | 25 | 0.0 | 0.0 | 0.00 | 0.00 | 0.00 | 91 | 1015.5 |
| 20260901061534 | 49 | 25 | 0.0 | 0.0 | 0.00 | 0.00 | 0.00 | 91 | 1015.6 |
| 20260901061234 | 49 | 25 | 0.0 | 0.0 | 0.00 | 0.00 | 0.00 | 91 | 1015.7 |
| 20260901061115 | 49 | 25 | 0.0 | 0.0 | 0.00 | 0.00 | 0.00 | 91 | 1015.7 |
| 20260901060030 | 49 | 25 | 0.0 | 0.0 | 0.00 | 0.00 | 0.00 | 91 | 1015.8 |
| 20260901055750 | 49 | 25 | 0.0 | 0.0 | 0.00 | 0.00 | 0.00 | 91 | 1015.7 |
| 20260901055025 | 49 | 25 | 0.0 | 0.0 | 0.00 | 0.00 | 0.00 | 90 | 1015.7 |
| 20260901054510 | 49 | 25 | 0.0 | 0.0 | 0.00 | 0.00 | 0.00 | 91 | 1015.6 |
| 20260901054010 | 49 | 25 | 0.0 | 0.0 | 0.00 | 0.00 | 0.00 | 90 | 1015.6 |
| 20260901053506 | 49 | 25 | 0.0 | 0.0 | 0.00 | 0.00 | 0.00 | 91 | 1015.7 |
| 20260901053005 | 49 | 25 | 0.0 | 0.0 | 0.00 | 0.00 | 0.00 | 90 | 1015.7 |
| 20260901052448 | 49 | 25 | 0.0 | 0.0 | 0.00 | 0.00 | 0.00 | 90 | 1015.7 |
| 20260901051945 | 49 | 25 | 0.0 | 0.0 | 0.00 | 0.00 | 0.00 | 90 | 1015.7 |
| 20260901051446 | 49 | 25 | 0.0 | 0.0 | 0.00 | 0.00 | 0.00 | 90 | 1015.7 |
| 20260901050949 | 49 | 25 | 0.0 | 0.0 | 0.00 | 0.00 | 0.00 | 90 | 1015.8 |
| 20260901050701 | 50 | 25 | 0.0 | 0.0 | 0.00 | 0.00 | 0.00 | 90 | 1015.8 |
| 20260901045924 | 50 | 25 | 0.0 | 0.0 | 0.00 | 0.00 | 0.00 | 90 | 1015.9 |
| 20260901045651 | 50 | 25 | 0.0 | 0.0 | 0.00 | 0.00 | 0.00 | 90 | 1015.9 |
| 20260901044916 | 50 | 25 | 0.0 | 0.0 | 0.00 | 0.00 | 0.00 | 90 | 1015.9 |
| 20260901044419 | 50 | 25 | 0.0 | 0.0 | 0.00 | 0.00 | 0.00 | 90 | 1015.9 |
| 20260901044120 | 50 | 25 | 0.0 | 0.0 | 0.00 | 0.00 | 0.00 | 90 | 1016.0 |
| 20260901043357 | 50 | 25 | 0.0 | 0.0 | 0.00 | 0.00 | 0.00 | 89 | 1015.9 |
| 20260901042857 | 50 | 25 | 0.0 | 0.0 | 0.00 | 0.00 | 0.00 | 89 | 1016.0 |
| 20260901042355 | 51 | 25 | 0.0 | 0.0 | 0.00 | 0.00 | 0.00 | 89 | 1016.0 |
| 20260901041850 | 51 | 25 | 0.0 | 0.0 | 0.00 | 0.00 | 0.00 | 89 | 1015.9 |
| 20260901041347 | 51 | 25 | 0.0 | 0.0 | 0.00 | 0.00 | 0.00 | 89 | 1015.9 |
| 20260901041332 | 51 | 25 | 0.0 | 0.0 | 0.00 | 0.00 | 0.00 | 88 | 1015.9 |
| 20260901040343 | 51 | 25 | 0.0 | 0.0 | 0.00 | 0.00 | 0.00 | 88 | 1016.0 |
| 20260901035838 | 51 | 25 | 0.0 | 0.0 | 0.00 | 0.00 | 0.00 | 88 | 1015.8 |
| 20260901035328 | 51 | 25 | 0.0 | 0.0 | 0.00 | 0.00 | 0.00 | 87 | 1015.8 |
| 20260901034828 | 51 | 25 | 0.0 | 0.0 | 0.00 | 0.00 | 0.00 | 87 | 1015.8 |
| 20260901034328 | 51 | 25 | 0.0 | 0.0 | 0.00 | 0.00 | 0.00 | 87 | 1015.7 |
| 20260901033828 | 51 | 25 | 0.0 | 0.0 | 0.00 | 0.00 | 0.00 | 87 | 1015.8 |
| 20260901033329 | 52 | 25 | 0.0 | 0.0 | 0.00 | 0.00 | 0.00 | 87 | 1015.8 |
| 20260901032823 | 52 | 25 | 0.0 | 0.0 | 0.00 | 0.00 | 0.00 | 87 | 1015.8 |
| 20260901032321 | 52 | 25 | 0.0 | 0.0 | 0.00 | 0.00 | 0.00 | 87 | 1015.6 |
| 20260901031806 | 52 | 25 | 0.0 | 0.0 | 0.00 | 0.00 | 0.00 | 87 | 1015.6 |
| 20260901031254 | 53 | 25 | 0.0 | 0.0 | 0.00 | 0.00 | 0.00 | 86 | 1015.5 |
| 20260901031013 | 53 | 25 | 0.0 | 0.0 | 0.00 | 0.00 | 0.00 | 86 | 1015.5 |
| 20260901030254 | 53 | 25 | 0.0 | 0.0 | 0.00 | 0.00 | 0.00 | 86 | 1015.5 |
| 20260901030018 | 53 | 25 | 0.0 | 1.0 | 0.00 | 0.00 | 0.00 | 86 | 1015.5 |
| 20260901025505 | 53 | 25 | 0.0 | 1.0 | 0.00 | 0.00 | 0.00 | 86 | 1015.4 |
| 20260901024745 | 53 | 26 | 0.0 | 0.0 | 0.00 | 0.00 | 0.00 | 85 | 1015.4 |
| 20260901024242 | 54 | 26 | 0.0 | 0.0 | 0.00 | 0.00 | 0.00 | 85 | 1015.4 |
| 20260901023727 | 54 | 26 | 0.0 | 0.0 | 0.00 | 0.00 | 0.00 | 85 | 1015.4 |
| 20260901023441 | 54 | 26 | 0.0 | 0.0 | 0.00 | 0.00 | 0.00 | 84 | 1015.4 |
| 20260901022714 | 55 | 26 | 0.0 | 0.0 | 0.00 | 0.00 | 0.00 | 83 | 1015.3 |
| 20260901022215 | 55 | 26 | 0.0 | 0.0 | 0.00 | 0.00 | 0.00 | 83 | 1015.3 |
| 20260901021718 | 55 | 26 | 0.0 | 0.0 | 0.00 | 0.00 | 0.00 | 83 | 1015.4 |
| 20260901021215 | 55 | 26 | 0.0 | 0.0 | 0.00 | 0.00 | 0.00 | 83 | 1015.4 |
| 20260901020705 | 56 | 26 | 0.0 | 2.0 | 0.00 | 0.00 | 0.00 | 83 | 1015.5 |
| 20260901020208 | 56 | 26 | 0.0 | 2.0 | 0.00 | 0.00 | 0.00 | 81 | 1015.4 |
| 20260901015705 | 57 | 24 | 0.0 | 0.0 | 0.00 | 0.00 | 0.00 | 80 | 1015.5 |
| 20260901015206 | 57 | 24 | 0.0 | 0.0 | 0.00 | 0.00 | 0.00 | 79 | 1015.5 |
| 20260901014656 | 57 | 24 | 0.0 | 0.0 | 0.00 | 0.00 | 0.00 | 79 | 1015.5 |
| 20260901014156 | 58 | 24 | 0.0 | 0.0 | 0.00 | 0.00 | 0.00 | 79 | 1015.6 |
| 20260901013922 | 58 | 24 | 0.0 | 0.0 | 0.00 | 0.00 | 0.00 | 78 | 1015.6 |
| 20260901013152 | 59 | 24 | 0.0 | 0.0 | 0.00 | 0.00 | 0.00 | 78 | 1015.7 |
| 20260901012909 | 59 | 24 | 0.0 | 0.0 | 0.00 | 0.00 | 0.00 | 78 | 1015.6 |
| 20260901012147 | 60 | 24 | 0.0 | 0.0 | 0.00 | 0.00 | 0.00 | 78 | 1015.6 |
| 20260901011642 | 60 | 24 | 0.0 | 0.0 | 0.00 | 0.00 | 0.00 | 77 | 1015.6 |
| 20260901011135 | 61 | 24 | 0.0 | 0.0 | 0.00 | 0.00 | 0.00 | 75 | 1015.7 |
| 20260901010630 | 62 | 24 | 0.0 | 0.0 | 0.00 | 0.00 | 0.00 | 73 | 1015.7 |
| 20260901010357 | 63 | 24 | 0.0 | 0.0 | 0.00 | 0.00 | 0.00 | 72 | 1015.7 |
| 20260901005622 | 64 | 24 | 0.0 | 0.0 | 0.00 | 0.00 | 0.00 | 70 | 1015.7 |
| 20260901005125 | 65 | 24 | 0.0 | 0.0 | 0.00 | 0.00 | 0.00 | 66 | 1015.7 |
| 20260901004602 | 65 | 24 | 0.0 | 0.0 | 0.00 | 0.00 | 0.00 | 64 | 1015.8 |
| 20260901004058 | 66 | 24 | 0.0 | 0.0 | 0.00 | 0.00 | 0.00 | 62 | 1015.8 |
| 20260901003556 | 67 | 24 | 0.0 | 0.0 | 0.00 | 0.00 | 0.00 | 60 | 1015.8 |
| 20260901003053 | 68 | 24 | 0.0 | 0.0 | 0.00 | 0.00 | 0.00 | 60 | 1015.9 |
| 20260901002553 | 69 | 24 | 0.0 | 0.0 | 0.00 | 0.00 | 0.00 | 59 | 1015.9 |
| 20260901002056 | 69 | 24 | 0.0 | 0.0 | 0.00 | 0.00 | 0.00 | 61 | 1015.9 |
| 20260901001551 | 69 | 24 | 0.0 | 0.0 | 0.00 | 0.00 | 0.00 | 59 | 1016.0 |
| 20260901001039 | 69 | 24 | 0.0 | 0.0 | 0.00 | 0.00 | 0.00 | 59 | 1015.9 |
| 20260901000534 | 70 | 24 | 0.0 | 0.0 | 0.00 | 0.00 | 0.00 | 57 | 1015.9 |
| 20260901000031 | 70 | 24 | 0.0 | 1.0 | 0.00 | 0.00 | 0.00 | 54 | 1015.9 |
| 20260831235524 | 70 | 24 | 0.0 | 1.0 | 0.00 | 0.00 | 0.00 | 53 | 1015.9 |
| 20260831235024 | 70 | 26 | 0.0 | 3.0 | 0.00 | 0.00 | 0.00 | 51 | 1015.9 |
| 20260831234524 | 70 | 26 | 0.0 | 3.0 | 0.00 | 0.00 | 0.00 | 49 | 1016.0 |
| 20260831234024 | 70 | 325 | 0.0 | 2.0 | 0.00 | 0.00 | 0.00 | 52 | 1015.9 |
| 20260831233520 | 70 | 325 | 0.0 | 2.0 | 0.00 | 0.00 | 0.00 | 48 | 1016.0 |
| 20260831233240 | 71 | 201 | 0.0 | 3.0 | 0.00 | 0.00 | 0.00 | 45 | 1016.0 |
| 20260831233114 | 70 | 328 | 0.0 | 3.0 | 0.00 | 0.00 | 0.00 | 47 | 1016.0 |
| 20260831232020 | 71 | 161 | 0.0 | 2.0 | 0.00 | 0.00 | 0.00 | 46 | 1016.2 |
| 20260831231520 | 71 | 317 | 0.0 | 3.0 | 0.00 | 0.00 | 0.00 | 47 | 1016.3 |
| 20260831231020 | 71 | 317 | 0.0 | 5.0 | 0.00 | 0.00 | 0.00 | 46 | 1016.3 |
| 20260831230516 | 71 | 344 | 2.0 | 5.0 | 0.00 | 0.00 | 0.00 | 46 | 1016.4 |
| 20260831230241 | 71 | 304 | 1.0 | 5.0 | 0.00 | 0.00 | 0.00 | 45 | 1016.4 |
| 20260831225517 | 71 | 331 | 0.0 | 1.0 | 0.00 | 0.00 | 0.00 | 46 | 1016.5 |
| 20260831225015 | 70 | 317 | 0.0 | 3.0 | 0.00 | 0.00 | 0.00 | 47 | 1016.4 |
| 20260831224516 | 71 | 317 | 0.0 | 3.0 | 0.00 | 0.00 | 0.00 | 44 | 1016.4 |
| 20260831224016 | 71 | 280 | 0.0 | 3.0 | 0.00 | 0.00 | 0.00 | 47 | 1016.4 |
| 20260831223512 | 71 | 296 | 0.0 | 3.0 | 0.00 | 0.00 | 0.00 | 47 | 1016.4 |
| 20260831223010 | 71 | 327 | 0.0 | 3.0 | 0.00 | 0.00 | 0.00 | 45 | 1016.4 |
| 20260831222504 | 71 | 327 | 0.0 | 4.0 | 0.00 | 0.00 | 0.00 | 46 | 1016.5 |
| 20260831222002 | 71 | 332 | 0.0 | 4.0 | 0.00 | 0.00 | 0.00 | 45 | 1016.6 |
| 20260831221502 | 71 | 318 | 0.0 | 3.0 | 0.00 | 0.00 | 0.00 | 44 | 1016.6 |
| 20260831220957 | 71 | 287 | 0.0 | 4.0 | 0.00 | 0.00 | 0.00 | 45 | 1016.7 |
| 20260831220719 | 71 | 287 | 0.0 | 4.0 | 0.00 | 0.00 | 0.00 | 45 | 1016.8 |
| 20260831215957 | 71 | 237 | 0.0 | 1.0 | 0.00 | 0.00 | 0.00 | 44 | 1016.7 |
| 20260831215453 | 71 | 237 | 0.0 | 5.0 | 0.00 | 0.00 | 0.00 | 43 | 1016.8 |
| 20260831214947 | 71 | 275 | 0.0 | 5.0 | 0.00 | 0.00 | 0.00 | 44 | 1016.8 |
| 20260831214711 | 71 | 20 | 0.0 | 4.0 | 0.00 | 0.00 | 0.00 | 43 | 1016.9 |
| 20260831213948 | 71 | 336 | 1.0 | 4.0 | 0.00 | 0.00 | 0.00 | 44 | 1016.9 |
| 20260831213448 | 71 | 188 | 1.0 | 4.0 | 0.00 | 0.00 | 0.00 | 44 | 1017.2 |
| 20260831212948 | 71 | 98 | 0.0 | 8.0 | 0.00 | 0.00 | 0.00 | 45 | 1017.2 |
| 20260831212443 | 71 | 224 | 0.0 | 8.0 | 0.00 | 0.00 | 0.00 | 49 | 1017.3 |
| 20260831211946 | 71 | 312 | 0.0 | 3.0 | 0.00 | 0.00 | 0.00 | 49 | 1017.3 |
| 20260831211444 | 71 | 195 | 0.0 | 5.0 | 0.00 | 0.00 | 0.00 | 47 | 1017.3 |
| 20260831210944 | 70 | 143 | 1.0 | 5.0 | 0.00 | 0.00 | 0.00 | 46 | 1017.4 |
| 20260831210444 | 70 | 318 | 0.0 | 4.0 | 0.00 | 0.00 | 0.00 | 45 | 1017.4 |
| 20260831205944 | 70 | 92 | 0.0 | 7.0 | 0.00 | 0.00 | 0.00 | 44 | 1017.5 |
| 20260831205447 | 70 | 5 | 2.0 | 7.0 | 0.00 | 0.00 | 0.00 | 45 | 1017.6 |
| 20260831204942 | 71 | 128 | 1.0 | 3.0 | 0.00 | 0.00 | 0.00 | 48 | 1017.6 |
| 20260831204432 | 70 | 310 | 0.0 | 3.0 | 0.00 | 0.00 | 0.00 | 48 | 1017.6 |
| 20260831203927 | 70 | 117 | 0.0 | 3.0 | 0.00 | 0.00 | 0.00 | 46 | 1017.7 |
| 20260831203644 | 70 | 211 | 0.0 | 3.0 | 0.00 | 0.00 | 0.00 | 48 | 1017.8 |
| 20260831202919 | 70 | 182 | 0.0 | 6.0 | 0.00 | 0.00 | 0.00 | 46 | 1017.8 |
| 20260831202414 | 70 | 180 | 1.0 | 6.0 | 0.00 | 0.00 | 0.00 | 46 | 1018.1 |
| 20260831201915 | 70 | 230 | 0.0 | 6.0 | 0.00 | 0.00 | 0.00 | 50 | 1017.9 |
| 20260831201415 | 69 | 214 | 0.0 | 6.0 | 0.00 | 0.00 | 0.00 | 47 | 1018.1 |
| 20260831201135 | 69 | 5 | 0.0 | 2.0 | 0.00 | 0.00 | 0.00 | 48 | 1018.2 |
| 20260831200410 | 69 | 0 | 0.0 | 2.0 | 0.00 | 0.00 | 0.00 | 49 | 1018.2 |
| 20260831195913 | 69 | 355 | 0.0 | 3.0 | 0.00 | 0.00 | 0.00 | 52 | 1018.3 |
| 20260831195411 | 69 | 22 | 0.0 | 3.0 | 0.00 | 0.00 | 0.00 | 51 | 1018.3 |
| 20260831194912 | 69 | 135 | 0.0 | 3.0 | 0.00 | 0.00 | 0.00 | 51 | 1018.4 |
| 20260831194412 | 68 | 144 | 0.0 | 9.0 | 0.00 | 0.00 | 0.00 | 51 | 1018.5 |
| 20260831193902 | 68 | 307 | 0.0 | 9.0 | 0.00 | 0.00 | 0.00 | 55 | 1018.6 |
| 20260831193356 | 68 | 24 | 0.0 | 8.0 | 0.00 | 0.01 | 0.00 | 51 | 1018.7 |
| 20260831193122 | 68 | 41 | 0.0 | 8.0 | 0.00 | 0.01 | 0.00 | 50 | 1018.7 |
| 20260831192357 | 68 | 130 | 0.0 | 5.0 | 0.00 | 0.01 | 0.00 | 49 | 1018.7 |
| 20260831191852 | 68 | 290 | 1.0 | 6.0 | 0.00 | 0.01 | 0.00 | 51 | 1018.8 |
| 20260831191353 | 68 | 182 | 0.0 | 6.0 | 0.00 | 0.02 | 0.00 | 53 | 1018.9 |
| 20260831190848 | 67 | 44 | 0.0 | 7.0 | 0.00 | 0.02 | 0.00 | 54 | 1018.9 |
| 20260831190347 | 67 | 57 | 1.0 | 7.0 | 0.00 | 0.02 | 0.00 | 49 | 1019.1 |
| 20260831190101 | 67 | 273 | 1.0 | 3.0 | 0.00 | 0.03 | 0.00 | 53 | 1019.1 |
| 20260831185333 | 67 | 301 | 0.0 | 4.0 | 0.00 | 0.04 | 0.00 | 55 | 1019.1 |
| 20260831184833 | 67 | 301 | 1.0 | 5.0 | 0.00 | 0.05 | 0.00 | 50 | 1019.2 |
| 20260831184551 | 67 | 235 | 1.0 | 5.0 | 0.00 | 0.06 | 0.00 | 53 | 1019.3 |
| 20260831183828 | 66 | 326 | 0.0 | 3.0 | 0.00 | 0.06 | 0.00 | 55 | 1019.3 |
| 20260831183323 | 66 | 11 | 0.0 | 2.0 | 0.00 | 0.07 | 0.00 | 56 | 1019.4 |
| 20260831182824 | 65 | 21 | 0.0 | 5.0 | 0.00 | 0.08 | 0.00 | 59 | 1019.4 |
| 20260831182545 | 65 | 11 | 0.0 | 5.0 | 0.00 | 0.09 | 0.00 | 57 | 1019.4 |
| 20260831181824 | 65 | 314 | 0.0 | 3.0 | 0.00 | 0.10 | 0.00 | 60 | 1019.5 |
| 20260831181324 | 65 | 309 | 0.0 | 4.0 | 0.00 | 0.11 | 0.00 | 59 | 1019.6 |
| 20260831180814 | 64 | 340 | 0.0 | 4.0 | 0.00 | 0.12 | 0.00 | 61 | 1019.7 |
| 20260831180312 | 64 | 314 | 1.0 | 3.0 | 0.00 | 0.12 | 0.00 | 61 | 1019.6 |
| 20260831175802 | 64 | 59 | 0.0 | 3.0 | 0.00 | 0.14 | 0.00 | 62 | 1019.7 |
| 20260831175521 | 63 | 269 | 0.0 | 3.0 | 0.00 | 0.15 | 0.00 | 64 | 1019.6 |
| 20260831174755 | 63 | 270 | 0.0 | 3.0 | 0.00 | 0.16 | 0.00 | 60 | 1019.8 |
| 20260831174249 | 64 | 213 | 0.0 | 0.0 | 0.00 | 0.17 | 0.00 | 61 | 1019.8 |
| 20260831173750 | 63 | 213 | 0.0 | 0.0 | 0.00 | 0.18 | 0.00 | 63 | 1019.8 |
| 20260831173250 | 63 | 213 | 0.0 | 0.0 | 0.00 | 0.19 | 0.00 | 67 | 1019.8 |
| 20260831172748 | 63 | 213 | 0.0 | 1.0 | 0.00 | 0.21 | 0.00 | 72 | 1019.8 |
| 20260831172239 | 63 | 213 | 0.0 | 1.0 | 0.00 | 0.22 | 0.00 | 70 | 1019.8 |
| 20260831172218 | 63 | 203 | 0.0 | 1.0 | 0.00 | 0.23 | 0.00 | 74 | 1019.8 |
| 20260831171226 | 62 | 188 | 0.0 | 1.0 | 0.00 | 0.23 | 0.00 | 77 | 1019.8 |